Temp
65 66 66 66 65 65 65 65 65 66 66 66 67 67 67 66 66 75 74 82 80 79 80 81 81 80 80 75 76 75 66 65 66 66 70 76 74 79 81 80 80 82 83 83 84
65 65 65 65 65 65 65 65 65 65 65 66 66 66 66 65 71 74 82 76 77 79 82 78 75 77 75 73 73 71 65 67 72 73 71 74 74 76 76 78 78 80 84 83 82
65 65 65 65 64 64 64 64 65 65 66 66 66 65 65 68 71 80 78 76 78 80 85 83 81 77 71 73 72 69 66 71 71 74 74 73 74 78 75 73 80 79 83 83 83
65 64 64 64 64 64 64 64 65 65 66 66 65 65 65 71 66 81 78 77 79 85 83 79 77 71 69 67 72 65 71 71 72 73 72 71 76 74 76 77 83 83 84 85 83
64 64 64 64 64 64 64 64 65 65 65 65 65 65 69 70 74 83 78 79 82 81 79 77 74 72 67 69 69 66 70 71 72 72 72 74 71 73 75 81 84 83 80 82 83
64 64 64 63 63 63 63 64 65 65 64 65 65 65 69 64 81 82 81 81 81 80 79 78 76 76 71 69 68 70 69 70 71 72 73 69 72 74 76 82 81 81 80 82 82
63 63 63 63 63 63 63 64 64 64 64 65 65 67 66 71 81 82 79 80 79 80 75 80 78 74 73 67 73 70 64 70 71 72 70 71 66 68 77 81 78 80 82 82 82
63 63 62 62 62 62 63 63 63 64 64 64 64 68 68 77 81 77 79 76 79 81 78 80 79 74 71 72 68 65 65 60 68 68 69 68 63 73 77 76 75 78 82 81 82
62 62 62 62 62 62 63 63 64 65 65 65 68 67 68 76 74 77 80 75 76 78 79 79 76 71 68 63 62 63 58 60 63 69 68 66 65 72 73 73 74 78 80 81 82
61 61 61 61 61 62 62 62 65 66 68 70 70 63 72 68 72 74 77 77 73 73 71 70 70 64 64 62 53 59 57 61 60 65 65 64 63 71 75 75 74 78 80 80 81
61 60 60 60 61 61 67 73 69 68 66 66 65 64 68 71 74 73 76 74 73 70 62 67 60 56 62 64 64 63 59 58 64 65 61 63 64 68 73 73 73 76 79 81 82
60 60 59 60 60 59 68 60 55 56 54 60 60 60 64 66 62 71 76 68 66 61 66 59 55 65 67 63 60 60 57 58 63 65 62 62 62 67 71 72 74 76 79 81 83
60 59 59 59 59 63 61 56 62 60 50 58 60 60 62 64 61 64 69 68 64 61 60 59 63 65 61 58 56 58 55 57 58 62 64 61 58 66 68 72 74 75 76 78 80
59 58 59 58 61 61 59 61 61 61 53 58 59 62 63 63 59 69 71 67 62 58 61 59 66 60 57 56 59 53 63 59 56 54 50 60 49 62 64 67 72 74 74 74 74
58 58 58 56 61 61 59 62 61 57 45 59 59 70 66 61 64 64 71 66 59 59 59 57 57 58 55 58 61 57 61 57 56 54 55 55 50 61 59 61 69 70 67 66 68
58 57 57 60 63 60 62 61 59 51 42 54 59 56 58 62 63 66 65 68 68 60 61 60 68 63 62 64 63 62 57 55 54 53 44 55 52 57 56 62 69 70 67 64 64
57 56 58 61 57 61 61 60 51 44 58 48 47 51 54 53 56 57 57 59 56 51 53 60 59 64 65 58 62 58 51 42 39 40 43 53 50 56 62 61 68 69 68 64 65
56 54 57 60 61 61 61 56 41 47 45 49 47 51 49 48 51 51 53 53 56 52 50 48 47 60 64 60 57 54 54 41 32 38 42 48 44 56 61 62 65 66 64 62 63
54 61 60 60 60 60 58 45 42 40 42 41 48 45 47 45 46 48 49 48 48 49 41 45 48 64 63 65 63 56 49 58 45 45 41 48 55 61 60 62 60 62 60 59 61
57 57 56 59 59 59 53 44 41 44 44 44 38 41 39 41 39 43 44 48 44 46 50 47 38 54 58 62 62 60 62 44 42 33 32 46 49 50 55 59 62 58 57 59 56
52 50 55 58 60 55 42 42 41 45 46 41 38 37 39 37 39 39 40 47 46 46 49 43 40 45 52 52 53 52 48 53 51 46 42 41 46 59 59 58 55 56 57 58 57
45 43 54 55 46 40 41 42 43 42 45 41 41 39 37 38 36 37 37 43 50 47 40 44 35 35 43 55 56 51 45 52 44 43 48 48 49 61 60 57 56 55 56 59 59
40 39 51 50 34 35 39 39 41 39 39 39 37 40 41 36 31 37 39 46 46 44 41 45 39 30 39 50 48 36 37 39 38 44 45 42 49 59 59 58 57 57 59 60 60
38 34 41 43 42 41 36 35 34 40 39 40 39 41 38 36 40 33 37 42 44 44 46 45 38 32 30 37 35 32 33 33 34 34 43 49 48 52 53 54 58 58 59 62 62
42 35 40 33 37 41 40 36 33 32 39 41 37 37 35 28 33 34 35 39 43 45 44 41 32 38 40 41 40 37 38 37 31 33 31 34 40 51 53 54 57 59 59 59 60
36 34 40 35 37 34 34 32 33 34 36 34 34 37 38 31 33 29 35 36 35 42 40 42 31 36 33 40 41 37 41 43 40 34 36 36 37 51 57 58 59 61 59 59 60
39 41 44 34 35 35 36 35 35 38 38 41 38 36 34 38 42 43 43 42 39 35 36 35 32 31 27 38 38 32 40 42 43 46 39 37 45 51 53 54 57 59 60 60 62
MSLP
1020.81 1020.50 1020.14 1019.74 1019.32 1018.89 1018.52 1018.12 1017.71 1017.29 1016.89 1016.50 1016.20 1015.85 1015.51 1015.15 1014.61 1013.76 1012.35 1011.11 1011.09 1011.38 1011.50 1011.73 1011.92 1011.89 1011.91 1011.85 1011.95 1011.70 1010.48 1009.06 1008.84 1008.86 1008.42 1008.68 1008.46 1008.55 1008.57 1008.26 1008.48 1008.52 1008.46 1009.05 1009.54
1020.96 1020.58 1020.19 1019.78 1019.32 1018.88 1018.44 1018.02 1017.60 1017.18 1016.78 1016.33 1015.93 1015.56 1015.26 1015.01 1013.90 1012.18 1010.82 1011.16 1011.37 1011.27 1011.16 1011.13 1011.28 1011.54 1011.40 1011.54 1011.69 1011.24 1010.21 1009.12 1009.12 1008.99 1008.72 1008.80 1008.66 1008.39 1008.45 1008.13 1008.17 1008.35 1008.69 1009.33 1009.74
1020.91 1020.54 1020.13 1019.65 1019.15 1018.61 1018.13 1017.73 1017.32 1016.83 1016.51 1016.22 1015.88 1015.65 1015.22 1014.71 1012.97 1010.42 1010.63 1010.98 1010.95 1011.29 1011.00 1010.92 1010.97 1011.03 1010.99 1011.30 1011.18 1010.93 1010.07 1009.64 1009.52 1009.50 1009.32 1008.89 1008.63 1008.54 1008.13 1007.83 1007.72 1007.83 1008.10 1008.93 1009.35
1020.86 1020.47 1020.05 1019.58 1019.06 1018.50 1018.03 1017.51 1016.92 1016.33 1015.89 1015.64 1015.64 1015.51 1015.18 1014.54 1011.96 1010.32 1010.52 1010.73 1011.19 1011.22 1011.09 1011.16 1011.11 1011.14 1010.89 1010.71 1010.66 1010.74 1010.19 1010.26 1009.88 1009.76 1009.60 1009.11 1008.76 1008.26 1007.96 1007.66 1007.84 1008.14 1008.17 1008.44 1008.72
1020.92 1020.50 1020.08 1019.62 1019.07 1018.41 1017.82 1017.26 1016.65 1016.10 1015.62 1015.42 1015.26 1015.32 1014.93 1013.30 1011.11 1010.61 1010.70 1010.74 1010.83 1011.09 1010.91 1010.92 1010.91 1010.83 1010.73 1010.68 1010.79 1010.44 1009.80 1010.01 1010.13 1010.12 1009.77 1009.49 1008.83 1008.30 1007.55 1007.60 1007.75 1008.07 1008.43 1008.28 1008.27
1020.87 1020.39 1019.86 1019.29 1018.68 1017.99 1017.24 1016.76 1016.17 1015.43 1014.87 1014.73 1014.94 1015.17 1014.50 1012.46 1010.77 1010.67 1010.71 1010.86 1010.76 1010.84 1010.71 1010.90 1010.72 1010.92 1010.76 1010.66 1010.64 1010.17 1010.10 1009.71 1009.50 1009.51 1009.43 1009.21 1008.29 1008.10 1007.15 1007.21 1007.14 1007.51 1007.69 1007.77 1007.87
1020.71 1020.22 1019.71 1019.11 1018.46 1017.66 1016.69 1016.02 1015.59 1015.19 1014.78 1014.55 1014.61 1014.57 1013.64 1011.57 1010.93 1011.02 1010.82 1010.65 1011.01 1010.92 1010.84 1010.79 1010.91 1011.08 1010.92 1010.78 1010.76 1010.52 1010.05 1009.32 1008.84 1008.67 1008.80 1009.17 1007.91 1006.91 1007.05 1006.73 1006.74 1006.65 1006.89 1007.10 1007.40
1020.71 1020.22 1019.67 1018.99 1018.24 1017.32 1016.35 1015.79 1015.25 1014.70 1014.46 1014.35 1014.65 1014.31 1012.04 1011.19 1011.21 1011.22 1011.08 1011.14 1011.04 1011.01 1011.00 1011.05 1011.13 1010.90 1011.02 1011.11 1010.88 1010.41 1010.04 1008.76 1008.23 1008.62 1008.66 1008.98 1006.81 1006.45 1006.46 1006.63 1006.30 1006.16 1005.96 1006.33 1006.75
1020.64 1020.12 1019.63 1019.02 1018.23 1017.18 1015.91 1015.42 1014.93 1014.56 1014.36 1014.55 1014.34 1013.61 1011.28 1011.24 1011.15 1011.15 1010.82 1010.55 1010.95 1011.03 1011.07 1011.22 1011.33 1011.08 1011.14 1010.65 1010.18 1009.75 1008.78 1008.42 1008.24 1008.41 1008.25 1008.09 1006.58 1006.59 1006.83 1006.66 1006.14 1005.63 1005.38 1005.58 1006.02
1020.67 1020.13 1019.62 1018.99 1018.15 1017.14 1015.88 1015.18 1014.74 1014.61 1014.51 1014.14 1013.75 1013.50 1011.16 1011.17 1011.28 1011.15 1011.25 1011.22 1010.84 1010.93 1011.05 1011.12 1010.90 1010.81 1010.62 1010.27 1008.91 1008.50 1008.86 1008.56 1008.35 1008.47 1008.29 1007.57 1006.82 1006.32 1006.19 1005.94 1005.49 1004.97 1004.67 1004.74 1005.07
1020.48 1020.00 1019.52 1019.00 1018.38 1017.36 1015.71 1014.75 1014.77 1014.52 1014.04 1013.45 1013.10 1012.55 1011.94 1011.73 1011.37 1010.81 1010.90 1010.92 1010.87 1010.96 1010.45 1010.62 1010.29 1009.50 1009.37 1009.84 1009.51 1009.36 1009.26 1008.72 1008.53 1008.90 1008.74 1007.48 1006.42 1005.84 1005.62 1005.35 1004.85 1004.33 1003.92 1003.74 1004.07
1020.14 1019.86 1019.37 1018.90 1018.22 1017.56 1016.49 1016.79 1018.38 1018.74 1015.93 1013.91 1013.38 1013.10 1012.71 1012.81 1011.74 1010.45 1010.54 1010.41 1010.24 1009.81 1010.33 1010.79 1009.23 1009.03 1009.47 1009.89 1009.88 1009.57 1009.29 1008.58 1008.31 1008.65 1008.61 1007.50 1006.27 1005.48 1004.98 1004.20 1003.74 1003.43 1003.08 1002.90 1003.16
1020.39 1019.99 1019.45 1018.87 1018.00 1017.72 1017.64 1018.43 1018.62 1018.36 1016.95 1013.72 1013.37 1012.80 1012.10 1012.20 1011.49 1010.99 1010.94 1010.07 1009.74 1009.52 1009.76 1008.93 1008.28 1008.84 1009.48 1009.54 1009.60 1009.30 1009.08 1008.60 1008.44 1008.58 1008.37 1007.21 1005.88 1004.27 1004.13 1003.53 1003.24 1003.21 1003.18 1003.15 1003.13
1020.35 1020.11 1019.60 1018.85 1018.66 1018.44 1018.27 1018.81 1018.66 1018.64 1016.08 1013.20 1012.27 1012.11 1012.43 1012.00 1011.09 1010.81 1010.80 1010.59 1010.17 1009.71 1009.71 1009.21 1008.58 1008.87 1009.13 1008.98 1009.32 1008.63 1008.88 1009.03 1008.90 1008.83 1007.66 1007.54 1004.98 1004.03 1003.85 1003.19 1002.83 1002.74 1002.77 1003.40 1003.88
1020.38 1020.15 1019.85 1019.10 1018.62 1018.23 1018.81 1018.68 1018.73 1018.10 1015.10 1012.68 1012.13 1012.00 1011.97 1011.99 1011.39 1010.89 1010.74 1010.59 1009.92 1009.69 1009.86 1008.29 1008.51 1008.48 1008.44 1008.03 1008.98 1008.38 1009.04 1009.16 1009.09 1008.61 1007.97 1007.22 1006.40 1003.65 1004.10 1003.12 1002.53 1002.90 1003.52 1004.26 1004.76
1020.18 1019.95 1019.84 1019.24 1018.97 1018.85 1018.64 1018.41 1018.16 1016.84 1013.87 1012.79 1012.29 1012.47 1012.00 1011.70 1011.53 1011.00 1010.75 1010.86 1010.27 1009.86 1009.31 1008.28 1008.17 1008.37 1007.88 1007.96 1008.22 1008.76 1009.01 1009.45 1009.61 1008.80 1007.34 1006.32 1005.97 1003.45 1003.64 1003.17 1002.76 1003.29 1004.02 1004.88 1005.52
1020.20 1020.07 1019.71 1019.17 1018.90 1018.83 1018.51 1017.77 1016.80 1015.62 1013.69 1014.23 1014.14 1013.99 1013.42 1012.84 1012.25 1012.04 1011.43 1010.80 1010.72 1010.19 1009.05 1007.97 1007.38 1007.45 1007.84 1007.76 1007.92 1008.70 1008.96 1008.51 1009.11 1008.23 1006.29 1006.60 1005.90 1004.02 1003.57 1003.81 1003.65 1003.63 1004.22 1005.36 1005.93
1020.16 1019.97 1019.78 1019.46 1019.32 1018.79 1017.84 1016.98 1016.52 1015.69 1016.11 1016.76 1016.24 1015.14 1014.66 1014.78 1013.76 1013.39 1012.42 1011.56 1011.93 1012.25 1010.63 1009.00 1007.11 1006.57 1006.42 1006.21 1006.71 1007.65 1007.77 1007.77 1007.48 1007.38 1006.75 1007.11 1005.28 1003.74 1003.98 1004.06 1004.28 1004.63 1005.06 1005.90 1006.52
1020.05 1019.85 1019.36 1019.09 1019.12 1018.70 1017.62 1017.04 1017.36 1017.82 1018.22 1017.91 1016.65 1016.16 1016.10 1016.79 1016.45 1015.05 1014.17 1013.88 1014.39 1014.25 1013.41 1010.84 1007.88 1006.78 1006.71 1006.32 1006.37 1006.78 1007.21 1007.03 1007.66 1008.08 1007.72 1006.12 1004.92 1004.14 1004.09 1003.94 1004.58 1004.79 1005.44 1006.29 1007.12
1019.75 1019.77 1019.64 1019.80 1019.25 1018.08 1017.70 1017.89 1018.96 1019.72 1019.62 1019.24 1018.34 1018.26 1017.98 1018.24 1018.24 1016.98 1016.02 1015.76 1015.93 1016.19 1015.68 1013.67 1011.60 1008.85 1007.93 1007.30 1006.49 1006.04 1007.05 1007.98 1008.49 1007.81 1006.54 1005.12 1004.38 1003.72 1003.97 1004.12 1004.33 1005.06 1005.82 1006.61 1007.84
1020.26 1019.82 1020.11 1019.98 1019.29 1018.45 1018.44 1019.49 1020.36 1020.92 1020.84 1020.54 1020.06 1019.64 1019.11 1019.74 1019.62 1018.53 1017.56 1017.01 1017.37 1016.90 1016.71 1016.10 1014.45 1010.76 1009.81 1007.96 1006.94 1006.99 1007.45 1007.29 1007.52 1007.28 1005.28 1004.41 1004.02 1003.72 1004.38 1005.10 1005.29 1005.51 1006.26 1006.88 1007.76
1020.89 1020.43 1020.24 1020.38 1019.96 1020.10 1019.83 1020.40 1021.38 1021.46 1021.80 1022.00 1021.12 1021.23 1020.23 1020.44 1020.22 1019.49 1018.64 1018.26 1017.68 1017.96 1017.36 1016.92 1015.88 1013.02 1010.72 1009.12 1008.99 1009.14 1008.81 1007.66 1007.20 1006.79 1006.19 1005.07 1003.95 1004.16 1004.74 1005.63 1006.14 1006.36 1006.63 1007.04 1007.60
1021.24 1021.50 1021.02 1021.08 1020.53 1020.60 1021.19 1021.69 1021.95 1021.99 1022.27 1022.67 1021.66 1021.80 1021.16 1021.20 1020.97 1019.72 1019.24 1019.09 1019.17 1018.89 1018.09 1017.41 1015.80 1013.90 1011.30 1009.74 1010.46 1011.20 1011.92 1011.51 1009.66 1008.05 1006.40 1005.76 1004.31 1004.60 1004.53 1005.99 1006.42 1006.53 1006.80 1007.14 1007.43
1021.05 1021.63 1021.54 1021.47 1021.17 1020.76 1021.21 1021.80 1022.35 1022.42 1022.87 1022.62 1022.12 1021.97 1021.31 1021.20 1021.08 1020.33 1020.03 1019.74 1019.81 1019.21 1018.78 1018.35 1016.89 1015.51 1013.51 1011.61 1012.71 1012.73 1012.88 1012.66 1012.82 1010.59 1008.19 1006.27 1005.91 1005.72 1005.41 1006.18 1006.28 1006.60 1006.69 1006.93 1007.30
1020.76 1020.82 1021.28 1021.40 1021.31 1021.50 1021.53 1021.88 1022.00 1022.51 1022.82 1022.69 1022.18 1021.74 1021.57 1021.67 1021.17 1020.53 1020.61 1020.04 1019.66 1019.16 1018.66 1018.38 1016.94 1015.60 1014.32 1013.62 1012.97 1012.88 1012.76 1012.82 1012.85 1012.12 1011.10 1009.83 1008.38 1006.73 1006.76 1006.63 1006.06 1006.64 1006.56 1006.73 1007.02
1020.57 1020.99 1021.31 1021.39 1021.53 1022.82 1022.09 1021.79 1021.50 1022.33 1022.39 1022.18 1022.16 1021.68 1021.69 1021.64 1021.52 1021.02 1020.80 1020.24 1019.63 1018.91 1018.54 1018.16 1017.16 1015.99 1014.67 1013.70 1012.85 1011.57 1011.64 1011.55 1011.81 1011.80 1011.95 1011.12 1009.79 1008.47 1007.38 1007.12 1006.20 1006.17 1006.39 1006.54 1006.76
1020.73 1020.92 1020.19 1021.65 1021.97 1022.12 1021.09 1021.00 1021.09 1021.83 1022.24 1021.70 1021.90 1021.77 1021.50 1021.06 1021.05 1020.71 1020.50 1019.94 1019.62 1019.27 1018.35 1018.22 1017.50 1016.17 1014.31 1013.17 1012.17 1010.57 1009.90 1010.10 1010.54 1010.63 1011.20 1010.68 1009.63 1008.65 1007.58 1007.34 1006.76 1006.43 1006.08 1006.45 1006.18
Wind_Speed
14 15 16 16 17 17 18 18 18 17 16 16 16 15 15 14 15 8 10 2 4 13 10 11 7 6 5 4 1 2 6 7 6 6 1 2 5 4 2 5 5 5 2 4 9
15 16 17 18 18 19 20 20 19 18 16 17 16 15 15 14 11 13 5 3 5 15 13 14 11 10 5 5 4 7 5 6 3 4 4 3 4 2 6 8 8 8 5 4 12
16 16 17 18 19 20 20 20 19 18 16 15 14 14 15 13 8 1 4 9 12 14 8 8 10 9 8 5 8 5 8 4 6 8 5 5 6 4 7 10 9 9 9 9 13
16 17 18 19 21 22 22 19 19 18 17 14 12 11 12 6 6 3 9 12 12 10 11 9 9 7 6 9 7 9 9 9 4 3 5 8 5 9 10 12 3 5 5 9 14
17 18 20 21 22 24 24 21 21 20 18 15 10 8 7 6 9 5 4 10 14 12 11 10 10 7 8 5 7 13 9 8 10 11 12 11 14 15 15 13 11 8 8 11 14
18 18 19 20 21 23 23 22 22 20 16 12 8 4 5 8 4 5 3 11 11 13 10 9 5 5 3 5 11 2 6 10 8 13 11 14 17 13 12 14 15 14 15 14 15
16 18 19 21 22 23 23 21 21 18 12 7 7 7 6 12 2 5 6 9 6 10 9 8 3 8 2 6 6 7 12 12 13 14 13 8 18 19 19 17 14 14 14 14 15
18 19 20 21 23 24 24 22 17 9 5 5 8 4 8 1 3 3 5 4 5 8 2 6 5 3 5 1 4 9 7 8 5 6 5 8 14 3 3 9 12 12 15 15 15
17 19 20 22 23 24 24 19 8 3 7 10 4 4 6 1 2 4 6 5 9 8 3 5 6 6 4 10 10 9 12 10 9 5 4 13 8 5 3 5 12 11 11 15 15
15 18 19 21 22 22 26 9 3 4 4 5 3 5 4 2 4 4 1 6 3 10 7 7 6 9 11 10 12 10 10 9 11 3 7 10 16 14 16 16 16 15 11 12 15
13 16 19 21 22 19 14 3 3 5 2 6 7 8 6 9 4 2 4 8 5 10 13 12 12 16 19 17 18 12 12 15 15 5 9 14 19 20 16 17 18 19 18 16 16
11 14 18 19 17 13 7 6 4 5 11 3 8 9 9 5 7 8 6 12 11 16 12 8 19 19 13 10 15 17 19 20 18 11 13 16 18 23 22 23 22 21 21 20 18
12 15 19 21 9 1 10 7 6 7 6 2 3 3 1 5 2 2 7 5 9 16 17 21 10 8 15 17 16 17 19 20 20 16 18 20 21 18 10 10 10 13 14 14 15
11 15 18 23 4 4 4 9 4 7 6 3 3 3 2 2 3 1 6 5 6 11 14 16 19 12 12 17 17 18 15 15 15 12 10 2 10 13 12 15 10 9 11 11 10
11 14 16 10 4 1 6 9 3 5 7 4 4 3 3 3 7 3 1 6 10 8 8 7 7 15 21 22 12 15 5 7 7 11 15 15 11 8 4 14 6 3 2 3 5
8 11 14 3 1 2 9 5 5 5 6 3 4 6 8 5 8 5 2 5 5 9 17 22 14 12 16 14 18 3 8 2 6 7 13 16 13 10 6 5 4 2 2 3 5
8 11 5 3 4 9 7 4 5 6 6 6 6 9 11 9 12 11 11 10 10 13 13 14 21 22 15 13 11 16 7 3 7 9 14 2 7 13 7 4 14 12 1 5 8
7 4 1 4 5 7 3 5 8 5 6 8 8 14 8 13 4 13 9 11 9 12 14 16 18 17 18 27 17 22 17 7 10 13 11 2 9 5 2 2 9 5 2 8 11
1 1 1 5 7 4 4 5 4 2 2 8 14 10 4 8 12 10 8 6 8 15 7 10 23 13 12 18 23 18 19 15 6 4 9 9 9 7 5 2 3 4 6 12 13
1 2 2 11 8 3 3 2 2 3 3 4 5 2 11 8 11 11 7 8 5 13 15 5 13 17 17 13 18 22 13 8 5 8 9 10 13 8 5 9 13 2 8 13 13
1 1 6 13 6 1 1 4 3 4 6 5 1 7 8 15 12 12 9 14 6 11 12 6 7 14 14 12 17 15 14 12 8 10 9 8 5 6 8 7 10 1 9 13 14
0 2 5 7 0 2 3 4 2 3 5 2 3 8 9 10 15 12 15 15 15 15 15 2 5 10 15 20 12 9 14 21 13 15 13 10 6 10 8 5 5 2 8 13 14
2 2 4 5 3 4 4 3 1 1 2 2 2 5 8 11 9 5 9 5 13 12 7 8 6 11 15 12 6 5 3 12 12 12 17 13 6 8 13 1 5 3 5 10 14
4 3 1 1 1 7 7 5 6 3 5 5 6 8 8 12 13 9 14 6 10 15 13 13 14 16 16 14 5 7 2 5 7 7 9 16 10 11 8 7 4 2 4 7 11
3 3 1 5 5 6 5 9 7 6 4 4 3 5 4 6 12 14 6 12 18 16 14 6 15 19 22 23 23 16 16 8 6 4 8 12 16 11 14 11 11 4 1 5 9
5 4 2 4 10 8 6 8 7 5 5 4 7 7 8 12 14 17 17 16 13 9 7 6 10 14 19 23 25 27 22 17 13 8 10 9 22 19 11 10 10 9 0 4 9
2 1 3 8 9 7 6 10 9 6 9 10 6 9 14 16 14 16 16 18 14 15 16 14 10 12 19 21 22 25 21 22 19 16 11 13 18 19 17 9 7 9 7 4 3
Wind_Direction
3 359 357 353 348 343 338 334 329 324 319 315 316 318 318 322 310 263 261 305 157 168 154 146 165 152 173 156 174 226 238 239 240 227 187 192 230 165 167 206 191 190 262 72 149
359 357 354 349 344 339 335 331 327 321 317 312 312 314 315 325 297 274 253 203 218 163 166 169 170 168 173 178 182 232 247 241 238 215 228 266 263 243 224 204 203 201 197 153 169
358 356 351 345 340 337 335 331 325 319 315 310 310 314 314 314 278 123 63 196 180 178 185 185 167 184 194 189 191 181 257 252 234 251 261 249 239 220 239 231 239 222 213 190 194
354 351 347 344 340 334 332 326 323 315 307 301 301 306 311 286 305 92 331 176 174 179 163 166 181 195 218 211 192 237 243 252 282 244 250 249 271 249 239 251 262 270 277 212 207
351 350 347 343 338 333 329 325 322 317 308 296 286 290 279 237 258 17 343 161 163 179 186 188 192 204 223 221 209 235 248 246 253 270 263 264 254 259 258 247 249 247 229 225 227
348 347 344 339 334 329 323 320 320 313 299 289 267 242 242 252 64 7 152 160 174 186 185 193 236 218 254 236 234 336 259 259 252 263 258 254 259 247 246 247 250 237 235 233 227
341 341 339 335 333 330 319 320 323 319 313 295 190 204 237 260 24 349 167 193 182 199 194 204 192 209 184 246 265 275 275 268 250 245 255 263 260 246 254 254 250 245 238 234 230
338 339 337 336 334 329 319 322 319 316 21 106 161 211 258 134 331 249 187 170 184 188 227 195 180 198 247 325 239 268 260 268 126 163 173 206 270 256 233 226 239 254 242 233 226
336 335 336 337 336 328 321 326 305 48 112 131 190 256 272 132 282 3 219 209 182 190 162 145 206 242 201 237 258 217 269 242 280 215 197 207 266 164 168 252 282 265 242 234 229
335 334 334 335 335 326 324 321 15 200 217 239 232 237 223 30 332 342 192 207 185 171 174 200 199 221 230 225 240 273 247 253 266 161 217 229 253 259 272 278 274 272 252 231 230
333 332 331 335 335 327 331 254 313 197 314 282 312 288 300 327 239 180 173 176 160 203 210 204 217 217 233 224 258 272 279 277 278 255 289 266 274 279 278 271 259 257 254 236 230
323 328 328 331 333 331 352 59 21 328 304 311 271 267 280 291 270 230 190 195 197 213 210 204 232 239 241 253 238 248 265 272 281 291 273 277 283 287 280 264 255 255 254 246 230
329 333 331 331 317 18 65 56 319 177 251 295 251 279 22 181 274 292 216 237 226 224 210 230 237 241 221 223 234 240 252 266 276 290 286 271 276 264 282 265 256 256 257 259 239
331 334 337 330 255 355 57 351 327 202 276 127 132 114 168 254 210 237 228 243 212 255 237 260 261 217 214 235 230 253 252 259 271 278 272 347 296 293 286 282 267 278 253 232 217
332 335 333 356 330 42 349 338 139 219 280 73 87 87 322 308 328 66 230 215 247 221 198 248 227 228 235 235 217 247 201 246 260 267 278 260 262 265 257 283 193 30 37 200 212
331 333 324 235 256 7 322 319 210 230 244 71 65 20 2 17 8 333 290 243 271 248 236 255 263 256 249 253 229 222 176 224 265 264 249 252 227 268 234 241 254 222 39 159 155
327 328 310 310 338 324 310 220 231 242 15 33 353 348 333 340 324 353 324 291 286 290 252 246 242 236 234 238 219 208 201 202 246 223 260 56 233 256 252 257 298 309 324 160 155
322 321 37 41 322 310 246 216 240 50 17 10 338 320 332 2 21 341 314 299 56 334 273 269 271 219 215 223 214 208 207 179 227 247 255 120 238 238 154 256 286 284 245 156 161
309 231 257 354 329 291 237 221 351 47 10 354 333 327 328 360 340 345 354 11 44 31 325 315 254 264 269 233 225 203 221 227 258 239 272 243 244 262 249 236 229 311 177 165 153
155 224 36 337 324 265 240 111 130 33 18 355 314 57 302 331 317 336 306 51 353 32 356 317 288 270 277 283 255 224 204 174 175 215 218 230 241 245 35 339 341 293 172 159 149
45 178 17 341 307 308 145 75 115 89 32 5 334 281 283 307 285 293 273 304 15 353 336 318 279 277 316 243 238 212 225 226 199 229 232 228 235 148 123 347 331 42 167 161 158
45 187 16 333 219 24 117 107 86 48 14 303 275 273 275 292 286 272 266 258 326 338 314 278 289 279 290 286 324 292 283 226 207 190 228 257 178 147 83 39 356 97 162 168 163
123 21 7 296 166 145 122 111 68 145 88 243 248 257 292 280 283 268 278 310 312 307 305 328 273 288 269 240 137 42 10 350 328 304 214 208 213 122 102 82 66 93 169 180 174
137 164 78 53 16 151 148 158 165 168 231 234 246 256 276 282 269 271 280 296 325 297 286 283 257 252 265 292 320 271 301 75 335 282 260 217 128 145 82 339 346 318 211 190 191
200 157 311 159 164 149 164 162 167 188 221 246 239 234 287 283 293 273 275 305 299 280 279 264 269 266 258 267 281 263 277 255 242 324 290 1 311 313 325 313 326 23 180 195 194
144 155 120 95 124 160 186 185 181 162 190 218 245 310 289 271 265 291 296 286 276 276 264 260 273 276 278 271 269 276 274 269 252 230 248 294 295 284 285 299 319 326 225 243 213
136 68 140 149 171 204 194 168 182 178 228 230 264 294 283 282 295 284 275 271 263 272 268 271 263 267 271 267 268 259 262 259 258 231 220 262 269 277 282 297 308 327 329 277 256